Weather History for Laramie, WY

Change the Weather History Date:

Thursday, December 1, 2011

  Actual Average Record
Temperature  
Mean Temperature 9 °F 23 °F  
Max Temperature 25 °F 34 °F 59 °F (1998)
Min Temperature -7 °F 12 °F -19 °F (1991)
Degree Days  
Heating Degree Days 56 42  
Month to date heating degree days 56 42  
Since 1 July heating degree days 2138 2354  
Cooling Degree Days 0 0  
Month to date cooling degree days 0 0  
Year to date cooling degree days 126 67  
Moisture  
Dew Point 12 °F    
Average Humidity 84    
Maximum Humidity 100    
Minimum Humidity 67    
Precipitation  
Precipitation 0.04 in 0.01 in 0.46 in (1967)
Month to date precipitation 0.04 0.01  
Year to date precipitation 10.28 10.61  
Sea Level Pressure  
Sea Level Pressure 30.32 in    
Wind  
Wind Speed 10 mph (NE)    
Max Wind Speed 24 mph    
Max Gust Speed 31 mph    
Visibility 4 miles    
Events Fog , Snow    
T = Trace of Precipitation, MM = Missing Value Source: NWS Daily Summary

Daily Weather History Graph

Daily Weather History Graph

Search for Another Location

Airport:

Trip Planner

Search our weather history database for the weather conditions in past years. The results will help you decide how hot, cold, wet, or windy it might be!

Date:

Astronomy

Dec. 01, 2011 Rise Set
Actual Time 7:08 AM MST 4:34 PM MST
Civil Twilight 6:38 AM MST 5:04 PM MST
Nautical Twilight 6:03 AM MST 5:39 PM MST
Astronomical Twilight 5:30 AM MST 6:12 PM MST
Moon 11:52 AM MST (12/1) 11:38 PM MST (12/1)
Length of Visible Light 10h 26m
Length of Day
9h 25m
Waxing Crescent, 44% of the Moon is Illuminated
Dec 1
Waxing Crescent
Dec 2
First Quarter
Dec 10
Full
Dec 17
Last Quarter
Dec 24
New

Hourly Weather History & Observations

Time (MST) Temp. Windchill Dew Point Humidity Pressure Visibility Wind Dir Wind Speed Gust Speed Precip Events Conditions
12:00 AM 24.8 °F 14.6 °F 23.0 °F 93% 30.09 in 0.8 mi North 10.4 mph - 0.01 in Snow Light Snow
12:23 AM 24.8 °F 14.6 °F 21.2 °F 86% 30.10 in 1.0 mi North 10.4 mph - 0.01 in Snow Light Snow
12:32 AM 24.8 °F 14.0 °F 21.2 °F 86% 30.10 in 1.0 mi North 11.5 mph - 0.01 in Snow Light Snow
12:53 AM 23.0 °F 11.1 °F 21.9 °F 96% 30.07 in 0.8 mi North 12.7 mph - 0.01 in Snow Light Snow
1:03 AM 23.0 °F 10.6 °F 21.2 °F 93% 30.11 in 0.8 mi North 13.8 mph - 0.00 in Snow Light Snow
1:21 AM 23.0 °F 13.1 °F 21.2 °F 93% 30.13 in 1.0 mi North 9.2 mph - 0.01 in Snow Light Snow
1:29 AM 23.0 °F 13.1 °F 21.2 °F 93% 30.13 in 1.2 mi North 9.2 mph - 0.01 in Snow Light Snow
1:53 AM 23.0 °F 13.1 °F 21.0 °F 92% 30.10 in 1.0 mi North 9.2 mph - 0.01 in Snow Light Snow
2:50 AM 21.2 °F 11.7 °F 21.2 °F 100% 30.17 in 1.0 mi NNE 8.1 mph - 0.01 in Snow Light Snow
2:53 AM 21.9 °F 11.7 °F 21.0 °F 96% 30.16 in 1.0 mi NNE 9.2 mph - 0.01 in Snow Light Snow
3:07 AM 21.2 °F 10.1 °F 19.4 °F 93% 30.18 in 1.0 mi NNE 10.4 mph - 0.00 in Snow Light Snow
3:17 AM 21.2 °F 9.5 °F 19.4 °F 93% 30.18 in 0.8 mi NNE 11.5 mph - 0.00 in Snow Light Snow
3:36 AM 21.2 °F 9.5 °F 19.4 °F 93% 30.19 in 1.0 mi NNE 11.5 mph - 0.01 in Snow Light Snow
3:53 AM 21.0 °F 7.6 °F 19.0 °F 92% 30.21 in 1.0 mi NNE 15.0 mph - 0.01 in Snow Light Snow
4:53 AM 21.0 °F 6.6 °F 18.0 °F 88% 30.26 in 1.8 mi NNE 17.3 mph 24.2 mph 0.00 in Snow Light Snow
5:00 AM 21.2 °F 6.4 °F 17.6 °F 86% 30.23 in 2.5 mi NNE 18.4 mph - 0.00 in Snow Light Snow
5:29 AM 19.4 °F 6.0 °F 17.6 °F 93% 30.24 in 1.8 mi NNE 13.8 mph - 0.00 in Snow Light Snow
5:40 AM 19.4 °F 5.5 °F 17.6 °F 93% 30.24 in 2.0 mi NNE 15.0 mph - 0.00 in Snow Light Snow
5:53 AM 19.9 °F 5.7 °F 17.1 °F 89% 30.30 in 3.0 mi NNE 16.1 mph - 0.00 in Snow Light Snow
6:12 AM 19.4 °F 4.5 °F 15.8 °F 86% 30.27 in 4.0 mi NNE 17.3 mph 26.5 mph 0.00 in Snow Light Snow
6:51 AM 17.6 °F 1.7 °F 14.0 °F 86% 30.29 in 2.5 mi NNE 18.4 mph 29.9 mph 0.00 in Snow Light Snow
6:53 AM 17.6 °F 2.2 °F 14.0 °F 86% 30.29 in 3.0 mi NNE 17.3 mph 29.9 mph N/A Snow Light Snow
7:53 AM 16.0 °F 3.6 °F 10.9 °F 81% 30.44 in 2.5 mi NNE 10.4 mph - 0.00 in Snow Light Snow
8:06 AM 15.8 °F 3.4 °F 10.4 °F 79% 30.35 in 3.0 mi NNE 10.4 mph - 0.00 in Snow Light Snow
8:20 AM 15.8 °F 4.2 °F 10.4 °F 79% 30.36 in 1.8 mi NNE 9.2 mph - 0.00 in Snow Light Snow
8:28 AM 15.8 °F 4.2 °F 10.4 °F 79% 30.37 in 0.8 mi NNE 9.2 mph - 0.00 in Snow Light Snow
8:37 AM 14.0 °F 2.9 °F 10.4 °F 86% 30.37 in 0.5 mi North 8.1 mph - 0.00 in Fog , Snow Snow
8:51 AM 14.0 °F 2.9 °F 10.4 °F 86% 30.37 in 0.8 mi NNE 8.1 mph - 0.00 in Snow Light Snow
8:53 AM 14.0 °F 2.0 °F 10.0 °F 84% 30.50 in 0.8 mi NNE 9.2 mph - 0.00 in Snow Light Snow
9:05 AM 14.0 °F 3.9 °F 10.4 °F 86% 30.38 in 1.2 mi ENE 6.9 mph - 0.00 in Snow Light Snow
9:21 AM 14.0 °F 6.5 °F 10.4 °F 86% 30.39 in 0.8 mi North 4.6 mph - 0.00 in Snow Light Snow
9:35 AM 15.8 °F 8.6 °F 10.4 °F 79% 30.39 in 1.2 mi ENE 4.6 mph - 0.00 in Snow Light Snow
9:53 AM 14.0 °F 5.1 °F 10.0 °F 84% 30.52 in 1.0 mi East 5.8 mph - 0.01 in Snow Light Snow
10:07 AM 14.0 °F 3.9 °F 10.4 °F 86% 30.40 in 3.0 mi East 6.9 mph - 0.00 in Snow Light Snow
10:21 AM 12.2 °F 0.7 °F 8.6 °F 85% 30.40 in 2.0 mi ENE 8.1 mph - 0.00 in Snow Light Snow
10:24 AM 14.0 °F 2.9 °F 8.6 °F 79% 30.40 in 2.0 mi ENE 8.1 mph - 0.00 in Snow Light Snow
10:36 AM 14.0 °F 2.0 °F 8.6 °F 79% 30.40 in 4.0 mi ENE 9.2 mph - 0.00 in Snow Light Snow
10:53 AM 15.1 °F 3.3 °F 8.1 °F 74% 30.53 in 7.0 mi ENE 9.2 mph - 0.00 in Snow Light Snow
11:53 AM 15.8 °F 8.6 °F 8.6 °F 73% 30.35 in 10.0 mi ENE 4.6 mph - N/A   Overcast
12:53 PM 17.1 °F - 8.1 °F 68% 30.49 in 10.0 mi Calm Calm - N/A   Scattered Clouds
1:11 PM 17.6 °F 7.3 °F 8.6 °F 68% 30.34 in 10.0 mi ENE 8.1 mph - N/A   Mostly Cloudy
1:42 PM 17.6 °F 8.2 °F 8.6 °F 68% 30.33 in 10.0 mi NNE 6.9 mph - N/A   Scattered Clouds
1:53 PM 17.6 °F 7.3 °F 8.6 °F 68% 30.33 in 10.0 mi NNE 8.1 mph - N/A   Clear
2:37 PM 17.6 °F 5.7 °F 8.6 °F 68% 30.32 in 10.0 mi NE 10.4 mph - 0.00 in   Overcast
2:53 PM 15.1 °F 6.4 °F 8.1 °F 74% 30.47 in 10.0 mi ENE 5.8 mph - 0.00 in   Scattered Clouds
3:53 PM 12.9 °F 3.8 °F 8.1 °F 81% 30.48 in 10.0 mi SSW 5.8 mph - N/A   Clear
4:53 PM 9.0 °F -5.9 °F 5.0 °F 84% 30.49 in 10.0 mi South 11.5 mph - N/A   Clear
5:53 PM 8.1 °F -7.0 °F 5.0 °F 87% 30.48 in 10.0 mi SSE 11.5 mph - N/A   Clear
6:53 PM 9.0 °F -8.5 °F 6.1 °F 88% 30.47 in 10.0 mi SSE 16.1 mph - N/A   Clear
7:53 PM 3.9 °F -11.3 °F 1.9 °F 91% 30.49 in 10.0 mi South 10.4 mph - N/A   Clear
8:53 PM -0.9 °F -18.3 °F -2.9 °F 91% 30.50 in 10.0 mi South 11.5 mph - N/A   Clear
9:53 PM -0.4 °F -13.4 °F -2.2 °F 92% 30.21 in 10.0 mi SSW 6.9 mph - N/A   Clear
10:53 PM -2.0 °F -12.2 °F -2.9 °F 96% 30.45 in 10.0 mi WSW 4.6 mph - N/A   Clear
11:34 PM -4.0 °F -16.3 °F -5.8 °F 92% 30.16 in 1.8 mi SW 5.8 mph - N/A   Partly Cloudy
11:53 PM -7.1 °F -21.4 °F -9.0 °F 91% 30.43 in 2.5 mi SW 6.9 mph - N/A   Clear